Theta_e
284 285 285 285 286 288 286 286 283 287 285 290 296 297 299 301 303 302 298 298 300 303 305 306 307 307 307 307 308 307 302 301 296 293 291 289 289 288 287 288 288 287 287 289
281 285 285 284 286 287 289 288 288 289 288 293 296 296 297 299 301 298 296 299 301 301 303 304 304 305 306 306 305 306 303 300 299 295 291 289 288 287 287 287 286 286 286 287
277 283 284 279 285 287 289 291 290 285 290 296 294 295 297 299 297 296 298 299 300 300 301 302 304 306 303 305 307 303 303 302 299 293 289 288 287 286 285 285 286 286 286 287
278 281 273 284 291 290 289 291 292 293 294 295 294 298 299 299 298 297 297 298 299 301 303 304 305 306 305 306 305 301 301 302 296 293 291 289 287 286 286 285 285 285 285 286
275 277 281 284 288 288 288 286 293 293 294 293 296 297 296 299 300 299 299 299 301 303 304 305 305 305 306 306 305 304 302 301 299 294 292 289 287 286 286 285 285 284 285 286
279 275 273 284 290 293 293 283 292 295 295 294 295 289 292 299 300 299 300 301 301 303 303 304 305 306 305 305 303 302 303 303 300 297 293 289 288 286 286 286 285 284 284 285
280 278 281 284 287 292 281 284 294 295 295 294 293 295 297 299 298 298 299 300 302 302 302 302 303 304 303 303 302 303 303 301 299 297 292 289 287 286 285 285 284 283 283 284
278 278 275 288 288 284 288 292 294 295 296 297 297 298 297 297 298 297 298 299 301 301 301 301 302 302 301 300 301 301 300 297 295 292 288 287 286 285 284 283 282 282 282 283
277 277 284 286 285 288 290 291 293 293 295 297 297 296 297 296 296 297 299 301 301 300 299 300 300 300 296 296 296 295 293 289 287 287 286 286 284 284 283 282 281 281 282 282
279 284 285 286 288 289 290 291 294 296 296 297 296 296 296 296 298 299 300 300 301 300 299 298 295 293 295 294 293 292 289 286 285 285 285 285 285 284 283 283 283 284 284 283
280 283 284 289 289 289 289 293 295 296 296 297 297 296 295 296 298 299 300 300 300 298 299 298 296 292 291 290 291 288 287 287 286 287 286 286 286 285 285 287 288 284 283 283
278 284 284 285 288 289 288 291 293 295 295 296 297 297 296 296 299 299 300 301 299 298 297 296 296 292 290 290 291 289 287 287 286 286 286 287 286 285 284 285 284 285 284 284
284 287 287 288 289 290 289 289 292 292 294 294 295 297 297 297 299 296 299 299 299 299 297 296 295 293 291 290 291 291 289 287 286 286 286 286 284 283 282 283 284 284 284 284
288 287 286 288 286 289 289 289 290 291 294 294 295 297 298 298 298 298 294 293 296 298 298 296 295 294 292 289 291 290 289 285 287 287 286 285 285 284 284 283 282 282 282 283
287 288 288 289 289 289 290 290 288 289 292 293 296 297 298 297 296 291 291 292 292 292 290 293 293 292 291 289 288 289 289 287 287 287 286 286 285 285 284 283 283 282 281 281
288 289 288 288 288 288 289 289 289 290 293 293 294 295 295 295 291 289 289 289 291 289 288 287 287 290 291 290 290 290 290 286 286 286 286 285 285 284 283 283 283 282 282 281
286 286 287 287 287 289 289 290 291 292 294 293 291 291 291 290 288 287 286 286 285 285 286 286 285 288 287 290 290 290 290 288 286 287 286 286 285 284 283 284 283 283 283 283
290 291 290 289 289 291 291 292 293 293 293 291 288 285 284 285 286 284 285 286 286 286 286 286 287 287 288 288 289 291 290 289 287 287 287 286 286 285 284 284 284 283 284 283
290 289 289 290 292 291 290 291 293 290 286 285 284 284 284 284 285 285 286 285 286 284 286 287 284 285 288 288 287 288 289 289 288 288 288 286 285 286 285 284 284 284 284 282
290 291 291 290 289 287 285 286 286 284 284 285 285 285 284 283 284 284 285 284 285 286 286 286 286 289 289 289 285 290 288 288 287 287 286 286 285 285 286 284 284 284 284 283
288 288 286 285 284 285 285 285 285 284 284 285 285 283 283 283 283 284 284 283 285 285 285 284 286 288 288 287 288 289 290 287 286 286 285 284 284 284 285 285 284 284 284 284
287 286 284 285 285 284 285 285 285 284 284 284 284 283 283 283 283 284 284 283 284 283 283 285 285 284 283 282 287 287 288 287 287 286 285 285 284 284 284 285 284 284 284 284
286 285 286 285 285 286 286 285 285 285 285 284 285 284 284 284 285 284 282 284 284 282 282 282 282 281 282 284 285 286 286 286 285 285 285 285 284 284 284 284 284 285 284 284
286 285 286 287 287 287 285 285 285 285 284 286 286 286 286 286 285 287 287 283 281 281 282 284 283 283 283 285 285 285 285 285 285 285 285 284 285 285 284 284 285 285 284 284
285 286 285 284 286 287 287 288 288 288 287 287 287 287 286 286 286 285 283 282 280 281 283 284 283 283 286 286 285 285 286 286 286 285 285 285 285 285 284 285 284 284 283 283
286 286 287 286 288 289 288 289 289 288 288 288 288 288 286 285 283 283 282 280 282 282 283 284 284 285 285 284 284 284 285 286 286 286 286 286 285 285 284 284 284 283 283 283
286 285 287 288 288 287 288 289 288 288 288 289 288 287 286 284 282 282 279 282 282 282 283 284 284 284 283 283 283 283 284 285 285 285 285 285 285 285 284 284 283 283 282 282
Wind_Speed
19 22 18 22 27 26 19 13 10 12 2 8 12 8 8 7 6 4 4 2 3 6 6 7 7 8 9 9 11 12 12 16 13 9 11 13 15 17 18 18 16 17 14 14
17 20 18 18 24 28 22 16 16 19 12 16 13 8 13 11 10 9 5 5 8 7 8 6 7 7 8 10 11 13 15 15 13 13 12 11 12 12 13 14 16 18 16 16
17 18 15 12 13 15 18 21 19 14 9 16 18 18 16 11 9 8 8 9 6 6 6 6 6 6 9 10 12 12 13 14 15 14 14 13 11 13 14 16 17 17 15 16
15 17 21 16 7 9 15 17 10 11 10 17 16 16 11 6 10 10 7 7 5 4 0 2 4 5 5 7 10 12 14 15 14 15 16 15 16 15 14 15 17 15 17 14
13 17 21 17 13 11 12 13 9 12 8 8 9 12 9 9 9 9 6 5 3 2 1 4 2 3 5 7 9 11 13 15 15 15 15 16 17 16 14 14 14 15 14 16
15 18 21 3 5 7 6 9 7 9 16 15 12 11 7 11 10 8 6 5 4 3 3 4 1 2 5 6 7 8 10 11 13 14 13 14 13 15 13 12 12 11 13 14
18 15 5 13 17 8 10 5 7 7 14 13 11 5 13 11 10 10 4 2 4 4 5 5 4 3 2 2 4 6 7 8 10 12 11 12 12 11 13 13 13 14 15 13
9 6 3 19 10 5 7 6 5 6 8 10 12 13 12 10 10 7 4 5 5 6 6 6 6 5 2 2 4 2 3 6 9 7 7 9 13 11 14 14 15 15 16 14
3 5 4 4 8 9 12 6 7 5 5 10 11 11 10 9 8 5 2 7 6 5 6 7 8 8 5 5 4 1 5 5 6 8 9 11 13 13 12 14 14 14 14 13
7 2 7 2 6 8 11 13 6 5 4 9 12 9 9 8 7 8 8 9 6 7 7 11 9 6 6 1 5 4 5 5 6 8 9 10 8 10 11 12 13 13 13 13
7 5 8 4 4 8 9 9 7 4 4 8 10 9 9 7 8 8 9 9 8 6 5 7 7 6 3 1 5 7 7 6 6 5 8 10 10 11 11 13 13 12 11 12
5 7 6 11 9 9 8 6 9 6 6 5 1 8 9 8 7 7 8 7 7 6 6 5 6 4 3 4 6 8 7 6 6 6 6 8 7 6 5 7 13 14 17 13
11 10 8 12 12 10 8 7 3 4 3 2 2 5 10 9 8 7 6 6 6 7 6 5 5 5 6 6 5 6 7 7 6 7 8 7 7 8 9 10 13 14 18 19
15 12 14 12 11 8 11 10 9 7 5 4 5 6 9 8 8 7 5 4 4 5 5 4 5 4 5 5 5 5 5 5 6 6 8 8 8 7 7 10 11 11 15 16
13 13 12 13 13 12 12 10 10 8 3 4 4 8 9 10 8 6 3 3 5 5 5 3 2 2 4 5 6 7 7 7 6 6 6 7 7 8 8 9 9 9 10 11
14 14 12 11 11 9 10 8 9 8 6 4 6 7 8 8 8 6 5 5 2 2 3 4 2 4 2 6 7 6 7 8 8 7 7 8 8 8 8 9 10 10 10 11
13 16 13 10 8 8 9 6 7 6 6 7 7 7 9 9 8 6 5 4 4 1 1 2 3 3 4 4 7 5 6 7 10 8 8 9 9 9 8 9 9 10 10 12
11 14 7 5 5 5 4 4 6 6 8 9 8 7 6 5 7 6 4 2 1 2 2 1 3 4 3 3 8 6 6 7 8 8 8 9 9 10 9 10 10 11 11 12
3 4 3 2 4 4 2 2 8 11 12 8 8 8 7 6 6 6 3 1 1 3 2 2 4 5 6 4 5 5 5 6 8 8 8 9 8 10 10 9 10 11 11 11
7 5 6 7 8 7 7 8 10 12 10 8 7 6 7 7 5 3 1 1 3 3 3 4 7 7 6 5 5 5 6 6 7 7 6 7 8 9 9 12 11 11 11 12
8 8 7 8 9 8 7 6 8 10 8 6 7 6 6 6 3 2 1 1 1 3 6 6 7 6 5 5 4 5 6 7 7 6 7 8 8 9 9 10 11 11 11 11
7 6 6 6 7 7 5 6 8 6 6 6 6 5 4 4 2 0 1 2 3 4 6 5 5 5 7 8 6 5 6 7 7 6 7 7 8 8 9 10 10 10 11 11
7 4 3 2 4 6 6 5 5 4 4 4 5 5 4 2 1 2 2 1 3 4 5 6 7 9 9 6 5 6 6 6 6 6 7 7 7 8 8 9 10 10 10 11
8 5 4 2 3 5 5 4 4 4 2 3 3 3 3 2 2 1 1 1 4 5 5 6 7 7 6 4 4 3 3 4 4 5 5 7 6 6 7 7 8 8 9 11
7 4 1 2 2 2 3 5 5 5 5 3 4 5 4 2 1 2 2 2 4 6 4 5 7 6 3 3 3 3 3 2 1 3 4 5 5 6 6 6 6 7 7 8
7 4 4 5 5 3 3 4 3 3 3 3 3 3 4 3 3 1 0 2 3 4 4 4 4 4 4 5 5 5 4 4 3 3 2 3 3 4 4 5 6 6 7 7
6 6 5 4 5 5 5 5 3 4 4 3 2 4 4 3 2 2 1 1 1 2 2 3 4 6 5 5 6 6 6 5 6 5 4 4 4 4 4 5 5 6 6 6
Wind_Direction
253 268 278 279 299 291 247 231 243 283 287 269 171 191 219 216 216 236 253 172 159 195 185 202 193 182 192 196 196 189 178 193 174 173 164 159 169 169 161 165 166 160 166 164
276 275 255 275 295 288 265 248 244 252 230 182 192 233 260 244 234 228 194 147 116 115 129 176 193 205 189 194 199 193 190 194 186 177 166 172 160 161 161 161 165 154 163 165
275 278 287 264 271 292 275 245 239 228 210 177 210 222 218 204 223 212 162 137 129 121 129 143 174 180 190 205 184 200 206 200 180 167 163 162 163 160 162 168 166 169 170 173
271 282 260 269 214 234 264 275 251 233 242 189 217 216 198 162 173 163 147 123 120 89 320 198 157 179 207 205 197 193 205 199 184 182 175 168 169 180 173 171 173 172 166 176
255 261 282 261 232 246 235 277 224 233 217 187 181 122 107 135 146 132 126 98 76 92 223 247 199 175 223 216 212 209 209 204 197 185 181 173 172 177 176 172 172 170 167 167
238 255 267 349 14 346 273 254 348 265 193 212 160 192 147 156 139 105 65 45 28 339 239 228 117 184 229 227 224 228 219 212 201 197 182 179 178 173 174 175 164 156 157 157
237 245 236 2 325 308 214 56 348 246 173 176 199 66 122 138 111 93 93 61 85 89 88 69 63 90 144 164 194 209 219 206 182 185 177 173 172 166 164 164 155 153 150 152
331 262 213 356 332 286 358 6 13 90 146 152 125 123 127 124 109 113 131 124 121 87 70 51 39 31 9 329 348 305 227 197 180 161 152 155 156 160 163 156 153 154 151 151
269 334 260 329 341 320 334 335 21 58 105 130 135 135 132 120 104 102 135 115 93 87 86 69 46 28 26 12 28 212 128 116 136 138 145 154 160 163 161 164 162 162 163 164
321 216 257 189 268 318 341 343 7 354 135 148 131 128 114 107 110 118 123 117 122 100 80 67 47 39 50 69 116 108 105 109 132 149 153 158 160 164 164 170 174 174 170 164
284 310 325 198 266 338 342 2 338 198 139 123 134 136 131 115 118 116 102 103 94 77 69 86 83 67 67 355 104 123 126 136 145 154 167 165 172 175 181 190 189 170 165 157
295 315 300 306 323 319 316 342 9 27 96 65 150 143 140 117 114 99 99 126 129 127 110 89 85 100 134 169 147 127 134 152 155 158 171 178 161 129 96 144 158 163 155 157
277 296 279 291 294 303 307 337 323 336 330 283 345 193 156 137 124 103 109 110 108 124 138 148 146 174 169 172 150 142 138 153 159 162 169 167 162 153 142 135 144 151 146 148
276 275 266 260 266 269 298 301 311 299 281 304 284 193 156 140 135 100 89 81 39 86 135 173 183 189 174 174 161 143 147 143 168 180 174 175 171 167 162 158 159 158 162 154
268 266 268 275 278 276 279 277 280 274 201 290 240 164 156 147 131 117 99 79 90 91 61 19 161 176 168 174 183 176 168 170 174 172 188 180 170 167 166 162 161 153 151 168
283 276 263 260 269 274 261 241 247 255 156 199 139 126 115 111 119 127 96 57 134 89 35 333 25 11 221 199 202 194 200 170 174 175 169 182 182 174 173 174 167 164 168 167
255 252 241 244 239 251 254 239 241 215 167 149 133 133 125 123 127 125 109 102 94 83 337 294 11 4 340 226 203 207 214 193 190 176 183 188 186 186 182 175 174 175 173 175
237 244 247 238 256 251 302 254 224 173 145 127 116 103 97 114 117 107 90 68 120 173 149 1 316 318 278 235 228 224 202 204 205 202 189 192 194 189 181 182 184 182 177 173
124 183 193 286 341 4 16 272 151 119 104 120 116 113 106 95 96 98 95 234 209 251 136 316 321 281 266 239 215 237 220 207 212 217 196 195 191 195 192 187 183 181 176 170
63 70 88 80 68 74 89 108 121 109 105 108 117 118 106 86 70 70 70 46 28 37 337 322 312 277 265 246 216 224 219 216 212 213 195 193 195 197 196 194 186 182 178 178
38 49 62 84 85 72 67 80 98 104 114 124 113 118 111 100 88 7 172 294 71 12 325 295 281 276 268 287 275 245 226 213 211 207 196 198 198 201 197 194 191 190 187 184
14 45 69 82 92 92 82 80 90 95 96 103 110 119 123 114 120 291 149 347 335 356 320 301 298 303 287 295 272 258 243 229 220 209 202 199 202 202 203 196 196 194 193 190
17 28 49 64 105 108 106 102 98 116 136 144 153 155 153 137 133 354 329 57 313 331 299 288 284 284 286 277 266 267 252 237 223 209 204 204 203 201 198 197 200 196 191 189
352 5 1 26 128 142 133 136 136 139 152 197 184 177 184 184 170 164 357 330 317 309 296 298 299 302 297 286 290 289 290 248 222 204 196 193 195 197 199 203 200 193 190 190
326 309 229 290 232 185 155 160 169 175 182 169 168 172 179 157 295 56 1 306 282 285 311 327 320 320 311 347 2 353 351 340 190 157 168 186 185 185 191 189 189 184 184 186
324 319 294 241 258 219 221 200 209 172 195 191 164 149 149 141 136 158 210 293 290 336 337 344 359 354 15 25 31 38 33 37 55 83 131 146 159 163 167 170 175 176 176 177
338 318 317 266 223 224 216 209 213 230 221 222 153 150 156 154 141 148 136 255 14 8 2 9 19 25 31 35 44 48 52 54 42 62 74 89 100 105 120 125 132 136 139 149